Broomfield, CO

8:52 AM MST on February 09, 2016 (GMT -0700)
Jeffco

Weather History for KBJC - March, 2011

Change the Weather History Date:

Friday, March 11, 2011

  Actual Average Record
Temperature  
Mean Temperature 55 °F -  
Max Temperature 69 °F 50 °F 71 °F (1997)
Min Temperature 41 °F 28 °F 10 °F (1998)
Degree Days  
Heating Degree Days 10    
Growing Degree Days 5 (Base 50)    
Moisture  
Dew Point 7 °F    
Average Humidity 19    
Maximum Humidity 34    
Minimum Humidity 5    
Precipitation  
Precipitation 0.00 in - - ()
Sea Level Pressure  
Sea Level Pressure 29.93 in    
Wind  
Wind Speed 8 mph (SSE)    
Max Wind Speed 21 mph    
Max Gust Speed 34 mph    
Visibility 10 miles    
Events      
Averages and records for this station are not official NWS values.
T = Trace of Precipitation, MM = Missing Value Source: NWS Daily Summary

Daily Weather History Graph

Daily Weather History Graph

Search for Another Location

Airport or City:

Trip Planner

Search our weather history database for the weather conditions in past years. The results will help you decide how hot, cold, wet, or windy it might be!

Date:

Astronomy

Mar. 11, 2011 Rise Set
Actual Time 6:18 AM MST 6:02 PM MST
Civil Twilight 5:51 AM MST 6:29 PM MST
Nautical Twilight 5:20 AM MST 7:01 PM MST
Astronomical Twilight 4:48 AM MST 7:32 PM MST
Moon 9:34 AM MST (3/11) No Moon Set
Length of Visible Light 12h 38m
Length of Day
11h 44m
Waxing Crescent, 38% of the Moon is Illuminated
Mar 11
Waxing Crescent
Mar 12
First Quarter
Mar 19
Full
Mar 26
Last Quarter
Apr 3
New

Hourly Weather History & Observations

Time (MST) Temp. Windchill Dew Point Humidity Pressure Visibility Wind Dir Wind Speed Gust Speed Precip Events Conditions
12:15 AM 44.6 °F 42.2 °F 10.4 °F 25% 29.90 in 10.0 mi SW 4.6 mph - N/A   Clear
12:35 AM 46.4 °F 45.2 °F 10.4 °F 23% 29.90 in 10.0 mi South 3.5 mph - N/A   Clear
12:55 AM 41.0 °F 35.8 °F 12.2 °F 31% 29.90 in 10.0 mi SW 8.1 mph - N/A   Clear
1:35 AM 50.0 °F - 6.8 °F 17% 29.89 in 10.0 mi South 4.6 mph - N/A   Clear
1:55 AM 42.8 °F - 10.4 °F 27% 29.87 in 10.0 mi Calm Calm - N/A   Clear
2:15 AM 42.8 °F - 10.4 °F 27% 29.86 in 10.0 mi Calm Calm - N/A   Clear
2:35 AM 46.4 °F 44.3 °F 8.6 °F 22% 29.87 in 10.0 mi North 4.6 mph - N/A   Clear
2:55 AM 51.8 °F - 1.4 °F 13% 29.87 in 10.0 mi North 9.2 mph 21.9 mph N/A   Clear
3:15 AM 53.6 °F - 1.4 °F 12% 29.85 in 10.0 mi North 15.0 mph 24.2 mph N/A   Clear
3:35 AM 53.6 °F - 1.4 °F 12% 29.84 in 10.0 mi NNE 15.0 mph - N/A   Clear
3:55 AM 55.4 °F - -0.4 °F 10% 29.85 in 10.0 mi West 3.5 mph 20.7 mph N/A   Clear
4:15 AM 55.4 °F - -0.4 °F 10% 29.83 in 10.0 mi North 16.1 mph 21.9 mph N/A   Clear
4:35 AM 55.4 °F - 1.4 °F 11% 29.84 in 10.0 mi Calm Calm - N/A   Clear
4:55 AM 53.6 °F - 1.4 °F 12% 29.85 in 10.0 mi SSW 13.8 mph 18.4 mph N/A   Clear
5:47 AM 55.4 °F - 3.2 °F 12% 29.84 in 10.0 mi SSW 17.3 mph 34.5 mph N/A   Scattered Clouds
6:51 AM 57.2 °F - 6.8 °F 13% 29.84 in 40.0 mi WSW 17.3 mph 28.8 mph N/A   Mostly Cloudy
7:49 AM 59.0 °F - 5.0 °F 12% 29.85 in 60.0 mi SW 19.6 mph 27.6 mph N/A   Mostly Cloudy
8:47 AM 59.0 °F - 3.2 °F 11% 29.87 in 50.0 mi SE 4.6 mph - N/A   Mostly Cloudy
9:53 AM 62.6 °F - 3.2 °F 9% 29.90 in 50.0 mi NE 11.5 mph 21.9 mph N/A   Mostly Cloudy
10:47 AM 66.2 °F - -2.2 °F 6% 29.90 in 50.0 mi West 15.0 mph 23.0 mph N/A   Mostly Cloudy
1:46 PM 66.2 °F - -4.0 °F 6% 29.88 in 60.0 mi WSW 8.1 mph 27.6 mph N/A   Mostly Cloudy
3:52 PM 69.8 °F - -0.4 °F 6% 29.91 in 60.0 mi West 13.8 mph 29.9 mph N/A   Mostly Cloudy
4:50 PM 68.0 °F - -5.8 °F 5% 29.92 in 50.0 mi SW 11.5 mph - N/A   Mostly Cloudy
5:30 PM 64.4 °F - 3.2 °F 9% 29.94 in 30.0 mi East 16.1 mph 23.0 mph N/A   Mostly Cloudy
5:47 PM 59.0 °F - 15.8 °F 19% 29.96 in 30.0 mi ESE 20.7 mph 24.2 mph N/A   Mostly Cloudy
6:45 PM 53.6 °F - 17.6 °F 24% 30.01 in 30.0 mi ESE 6.9 mph - N/A   Mostly Cloudy
7:48 PM 50.0 °F - 17.6 °F 28% 30.03 in 40.0 mi SE 9.2 mph - N/A   Scattered Clouds
9:48 PM 46.4 °F 41.5 °F 17.6 °F 32% 30.07 in 40.0 mi ESE 10.4 mph - N/A   Scattered Clouds
10:15 PM 44.6 °F 39.7 °F 17.6 °F 34% 30.08 in 10.0 mi SE 9.2 mph - N/A   Clear
10:35 PM 44.6 °F 39.7 °F 15.8 °F 31% 30.08 in 10.0 mi SE 9.2 mph - N/A   Clear
10:55 PM 44.6 °F 38.1 °F 15.8 °F 31% 30.09 in 10.0 mi SE 13.8 mph 18.4 mph N/A   Clear
11:15 PM 44.6 °F 38.4 °F 14.0 °F 29% 30.09 in 10.0 mi SE 12.7 mph - N/A   Clear
11:35 PM 42.8 °F 38.0 °F 14.0 °F 31% 30.09 in 10.0 mi SE 8.1 mph - N/A   Clear
11:54 PM 42.8 °F 38.0 °F 14.0 °F 31% 30.09 in 10.0 mi SE 8.1 mph - N/A   Clear